Location: Sternwarte Stuttgart
(48.7670°N, 9.1830°E)
Time: 01:38:39
(UTC+02:00)

Daily predictions for brighter satellites

Satellite Brightness Start Highest point End
(mag) Time Altitude Azimuth Time Altitude Azimuth Time Altitude Azimuth
Cosmos 2151 Rocket 4.5 00:00:05 10° NNW 00:04:14 40° W 00:04:15 40° W
Cosmos 1606 4.1 00:07:56 35° WNW 00:07:56 35° WNW 00:11:08 10° N
Cosmos 2278 Rocket 2.0 00:02:40 10° NNW 00:08:22 88° WSW 00:08:46 78° SSE
Cosmos 2237 Rocket 2.8 00:09:28 43° E 00:09:28 43° E 00:14:05 10° NE
Cosmos 1378 Rocket 4.4 00:10:04 43° NE 00:10:04 43° NE 00:13:20 10° NNE
Cosmos 1553 Rocket 4.1 00:09:29 52° SSW 00:11:02 74° W 00:17:18 10° N
Cosmos 2150 Rocket 4.2 00:06:50 10° NNW 00:12:15 63° ENE 00:12:33 62° E
Cosmos 1782 4.4 00:12:24 28° W 00:12:42 29° WNW 00:16:16 10° N
Meteor 1-27 Rocket 3.7 00:12:18 66° SW 00:13:03 78° WNW 00:18:42 10° N
Meteor 1-5 Rocket 4.0 00:11:10 10° N 00:16:46 86° E 00:17:05 80° SE
Cosmos 1937 Rocket 3.6 00:13:33 10° NNW 00:18:50 67° ENE 00:18:52 67° ENE
Cosmos 1844 Rocket 3.7 00:15:30 10° NW 00:20:25 33° WSW 00:20:44 32° WSW
Cosmos 858 Rocket 4.4 00:22:10 10° NNW 00:27:13 83° NNW 00:27:13 83° NNW
Meteor 1-11 Rocket 4.4 00:24:50 10° NNW 00:30:01 42° W 00:30:32 41° WSW
CZ-2C R/B 3.3 00:26:38 10° NNE 00:31:21 45° E 00:31:21 45° E
NOSS 0 Rocket 3.7 00:33:14 77° SSE 00:33:32 80° ESE 00:39:43 10° NNE
Okean 1 Rocket 3.9 00:29:55 10° NNW 00:33:29 45° WNW 00:33:29 45° WNW
NOSS 3-1 (C) 3.2 00:34:19 77° S 00:34:45 83° SE 00:41:27 10° NE
Cosmos 1898 Rocket 3.6 00:30:14 10° NNW 00:35:00 65° WNW 00:35:00 65° WNW
Cosmos 1346 Rocket 4.2 00:36:44 34° NW 00:36:44 34° NW 00:39:43 10° N
Cosmos 990 Rocket 4.0 00:31:15 10° NNW 00:36:08 74° NNE 00:36:08 74° NNE
USA 229 DEB 4.2 00:30:49 10° WSW 00:37:33 56° NW 00:44:28 10° NE
USA 229 4.2 00:30:55 10° WSW 00:37:39 57° NW 00:44:34 10° NE
Cosmos 1975 4.4 00:35:55 10° N 00:38:27 31° NNE 00:38:27 31° NNE
Cosmos 2219 Rocket 2.4 00:40:20 59° W 00:41:05 66° WNW 00:46:43 10° NNE
CZ-4B R/B 4.0 00:42:41 17° NE 00:42:41 17° NE 00:43:58 10° NNE
Cosmos 883 Rocket 4.3 00:41:03 74° SSW 00:41:38 84° W 00:47:48 10° N
Cosmos 1455 Rocket 4.1 00:37:54 10° N 00:41:23 41° NE 00:41:23 41° NE
Cosmos 1709 Rocket 3.9 00:38:42 10° NNW 00:45:07 79° W 00:45:46 71° SSW
ALOS 2 3.3 00:49:25 53° NNW 00:49:25 53° NNW 00:52:49 10° NNW
NOSS 3-1 (A) 3.3 00:48:24 78° SE 00:48:28 78° SE 00:55:09 10° NE
ATLAS 2AS CENTAUR R/B 4.0 00:50:52 30° ESE 00:50:52 30° ESE 00:57:20 10° NE
USA 267 4.0 00:45:08 10° E 00:51:22 49° NNE 00:57:37 10° WNW
SL-08 ROCKET BODY 4.4 00:46:55 10° N 00:52:48 65° ENE 00:53:05 64° E
Meteor 1-12 Rocket 4.2 00:50:44 10° N 00:56:37 75° ENE 00:56:49 74° E
Cosmos 2297 3.7 00:52:28 10° NNW 00:57:59 77° W 00:57:59 77° W
USA 81 4.1 00:59:38 78° NNW 00:59:38 78° NNW 01:04:37 10° N
Cosmos 1763 Rocket 4.1 01:01:56 49° ENE 01:01:56 49° ENE 01:06:09 10° NNE
COSMOS 2428 4.2 00:59:11 19° W 01:02:24 33° NW 01:07:33 10° NNE
Cosmos 1975 Rocket 3.9 01:06:41 49° NNW 01:06:41 49° NNW 01:10:08 10° N
Cosmos 1814 Rocket 4.2 01:07:31 65° NE 01:07:31 65° NE 01:11:57 10° NNE
Cosmos 2369 Rocket 3.7 01:02:33 10° NNW 01:07:26 29° NE 01:09:54 21° E
Cosmos 2285 Rocket 3.9 01:11:12 78° SSE 01:11:31 80° ESE 01:17:56 10° NNE
Cosmos 2074 Rocket 3.9 01:05:37 10° N 01:11:51 77° E 01:12:16 73° ESE
Cosmos 1812 4.4 01:20:36 33° NNW 01:20:36 33° NNW 01:22:54 10° N
Cosmos 468 Rocket 4.4 01:22:48 57° WNW 01:22:52 57° WNW 01:28:09 10° NNE
Cosmos 1980 4.3 01:23:07 46° W 01:24:00 50° NW 01:29:32 10° NNE
SL-16 R/B 2.2 01:27:46 77° ENE 01:27:46 77° ENE 01:33:11 10° NNE
ATLAS 3B R/B 2.8 01:20:47 10° NW 01:27:43 70° NE 01:29:36 48° ESE
ARGOS Delta rocket 4.3 01:24:41 10° NNE 01:28:07 54° NNE 01:28:07 54° NNE
Cosmos 1743 4.4 01:25:45 10° N 01:27:56 32° N 01:27:56 32° N
CZ-4C R/B 3.5 01:23:07 10° NW 01:29:24 39° WSW 01:29:24 39° WSW
ATLAS CENTAUR R/B 3.2 01:35:32 26° NE 01:35:32 26° NE 01:37:26 10° NE
Cosmos 1943 Rocket 4.0 01:30:25 10° NNW 01:35:14 27° NE 01:39:13 13° E
USA 238 DEB 4.0 01:32:05 10° NW 01:39:08 66° NE 01:42:34 32° ESE
USA 238 4.0 01:32:11 10° NW 01:39:13 65° NE 01:42:44 32° ESE
CZ-2C R/B 4.2 01:42:25 30° WNW 01:42:25 30° WNW 01:45:48 10° NNW
Cosmos 841 Rocket 3.6 01:41:57 72° N 01:41:57 72° N 01:46:39 10° NNE
Cosmos 1607 3.9 01:36:28 10° NW 01:42:52 85° NE 01:43:39 70° SE
Cosmos 2333 Rocket 3.6 01:40:59 26° W 01:43:06 33° NW 01:48:20 10° NNE
Cosmos 1666 4.3 01:39:38 10° N 01:41:59 34° N 01:41:59 34° N
Meteor 2-9 Rocket 4.3 01:39:01 10° N 01:44:19 59° ENE 01:44:25 59° E
Cosmos 540 Rocket 4.0 01:47:20 48° ENE 01:47:20 48° ENE 01:51:36 10° NNE
Cosmos 2278 Rocket 4.3 01:48:29 10° WNW 01:50:37 15° W 01:50:37 15° W
Cosmos 2237 Rocket 3.4 01:51:15 30° W 01:52:52 36° NW 01:58:07 10° NNE
Meteor 1-13 Rocket 4.2 01:53:27 80° SE 01:53:37 81° E 01:59:33 10° NNE
Cosmos 405 Rocket 4.5 01:59:36 29° NE 01:59:36 29° NE 02:01:40 10° NNE
USA 215 3.3 01:52:59 10° ENE 01:59:24 55° SE 01:59:26 55° SE
Meteor 2-4 Rocket 3.7 02:04:01 65° E 02:04:01 65° E 02:09:19 10° NNE
Meteor 1-19 Rocket 4.1 02:06:04 82° SSW 02:06:21 89° WNW 02:12:17 10° NNE
Cosmos 371 Rocket 4.0 02:07:54 47° NW 02:07:54 47° NW 02:12:30 10° NNE
CZ-2C R/B 3.9 02:07:15 10° N 02:12:00 32° WNW 02:12:53 30° W
Okean 1-7 Rocket 4.2 02:13:05 54° NE 02:13:05 54° NE 02:16:37 10° NNE
CZ-4B R/B 4.2 02:16:16 14° NW 02:16:16 14° NW 02:16:56 10° NW
NOSS 2-3 (D) 4.0 02:14:42 72° E 02:14:42 72° E 02:20:06 10° NE
Cosmos 1025 Rocket 3.7 02:17:12 53° NE 02:17:12 53° NE 02:20:44 10° NNE
Okean 2 4.4 02:19:54 43° NE 02:19:54 43° NE 02:23:06 10° NNE
Nadezhda 1 Rocket 4.0 02:18:58 58° WSW 02:19:37 62° WNW 02:25:50 10° N
SL-8 Rocket 4.2 02:15:18 10° N 02:21:26 64° ENE 02:22:55 49° SE
COSMOS 2455 4.4 02:17:05 10° NNW 02:22:33 34° NE 02:27:59 10° ESE
Cosmos 304 Rocket 3.9 02:24:19 74° NNE 02:24:19 74° NNE 02:28:44 10° NNE
Cosmos 1943 3.7 02:25:29 45° ESE 02:25:46 45° ESE 02:31:08 10° NE
Cosmos 2263 4.3 02:22:31 10° NNW 02:28:19 73° ENE 02:29:43 52° SE
CENTAUR R/B 4.4 02:21:53 10° NW 02:28:40 37° NNE 02:36:06 10° E
Cosmos 2058 Rocket 3.7 02:24:33 10° N 02:28:40 51° ENE 02:28:40 51° ENE
H-2A R/B 3.5 02:27:12 10° N 02:29:54 39° NNW 02:29:54 39° NNW
USA 267 3.1 02:27:32 10° ESE 02:34:06 90° S 02:40:42 10° NW
Cosmos 1437 Rocket 3.7 02:33:07 10° N 02:36:11 46° NNE 02:36:11 46° NNE
Cosmos 1295 Rocket 4.3 02:34:10 10° NNW 02:40:15 75° W 02:41:03 66° SSW
ATLAS 2AS CENTAUR R/B 3.0 02:38:16 47° SW 02:40:57 82° NW 02:49:10 10° NE
Cosmos 2341 Rocket 4.0 02:34:54 10° NNW 02:41:02 62° W 02:41:42 59° SW
Cosmos 1603 3.7 02:44:31 63° WSW 02:45:16 72° WNW 02:51:02 10° NNE
SL-08 R/B 3.8 02:46:06 48° ESE 02:46:58 56° ENE 02:51:39 10° N
Cosmos 1892 Rocket 3.7 02:49:35 72° ENE 02:49:35 72° ENE 02:53:54 10° NNE
Cosmos 1441 Rocket 3.9 02:50:56 53° N 02:50:56 53° N 02:54:01 10° N
Cosmos 2369 Rocket 2.2 02:46:19 10° NW 02:51:39 59° WSW 02:51:39 59° WSW
NOSS 3-2 (A) 3.9 02:45:29 10° NW 02:52:53 86° NE 03:00:58 10° SE
NPP 4.2 02:48:32 10° NNE 02:53:47 49° E 02:55:01 41° SE
Iridium 2 4.4 02:49:59 10° N 02:53:22 53° NE 02:53:22 53° NE
Meteor 1-23 Rocket 4.2 02:54:40 59° WSW 02:55:20 64° WNW 03:00:55 10° N
Cosmos 44 3.6 02:52:04 10° NNW 02:56:24 56° NE 02:57:58 35° ESE
NOSS 2-3 (E) 4.4 02:57:31 47° W 02:58:37 57° NW 03:04:31 10° NE
Cosmos 1238 Rocket 4.3 02:59:21 36° WNW 02:59:36 36° WNW 03:04:47 10° N
Cosmos 1461 3.1 02:56:35 10° NW 03:00:39 68° NE 03:00:41 68° NE
Gbstr 26 Del rocket 4.4 02:57:38 32° WSW 03:01:52 86° NNW 03:09:24 10° ENE
Cosmos 1241 Rocket 4.5 03:00:31 53° SW 03:02:15 90° WNW 03:08:55 10° NE
PSLV R/B 3.9 02:59:50 10° N 03:04:27 56° WNW 03:04:33 56° WNW
SL-08 R/B 4.4 03:01:03 10° N 03:07:24 82° W 03:09:16 49° S
Cosmos 1959 Rocket 4.4 03:01:48 10° NNW 03:08:01 74° W 03:09:38 51° SSW
Resurs 1-4 Rocket 3.5 03:06:32 10° NNE 03:11:11 31° E 03:13:42 21° SE
SL-16 R/B 3.9 03:09:37 17° W 03:12:16 24° NW 03:16:49 10° N
ATLAS CENTAUR R/B 3.1 03:11:48 23° WNW 03:12:42 25° NW 03:16:02 10° NNE
CZ-2D R/B 3.5 03:08:51 10° NNE 03:13:37 32° E 03:16:12 21° SE
Cosmos 773 Rocket 4.0 03:16:34 55° S 03:17:37 71° ESE 03:22:48 10° NNE
ATLAS 3B R/B 3.6 03:12:10 10° NW 03:16:49 28° W 03:16:49 28° W
Cosmos 1809 Rocket 4.4 03:12:49 10° NNW 03:18:57 72° W 03:20:44 47° SSW
Cosmos 1943 Rocket 2.1 03:13:51 10° NNW 03:19:29 66° WSW 03:20:40 52° SSW
Cosmos 1766 4.0 03:19:44 10° N 03:23:40 51° ENE 03:24:44 39° SE
Cosmos 1066 Rocket 4.1 03:22:45 46° S 03:24:21 73° E 03:29:43 10° NNE
Cosmos 2228 3.5 03:25:08 10° NNW 03:29:03 45° W 03:29:03 45° W
USA 238 DEB 4.3 03:23:27 10° NW 03:29:46 36° WSW 03:29:57 36° WSW
USA 238 4.3 03:23:33 10° NW 03:29:53 36° WSW 03:30:06 36° WSW
Helios 1A Rocket 4.1 03:30:55 10° N 03:34:28 29° WNW 03:34:31 29° WNW
Cosmos 292 Rocket 3.7 03:33:39 57° SW 03:34:38 81° WNW 03:39:32 10° NNE
SL-16 R/B 2.5 03:34:11 22° SSE 03:38:21 89° ENE 03:44:34 10° NNW
AQUA 3.7 03:34:29 10° NNE 03:39:18 86° WNW 03:40:32 50° SSW
Cosmos 44 Rocket 3.3 03:34:44 10° NW 03:39:10 52° WSW 03:39:10 52° WSW
Cosmos 1544 4.2 03:37:16 10° N 03:40:50 42° ENE 03:42:37 24° SE
Cosmos 1821 Rocket 4.3 03:36:22 10° N 03:42:26 64° ENE 03:48:14 11° SSE
USA 215 3.5 03:36:03 10° NE 03:42:31 65° NNW 03:46:47 23° W
ADEOS 4.1 03:37:32 10° NNE 03:42:41 54° E 03:45:21 27° SSE
Cosmos 1953 3.8 03:41:53 10° N 03:45:36 35° ENE 03:49:15 10° SE
CZ-3A R/B 3.2 03:47:30 11° ENE 03:47:30 11° ENE 03:47:35 10° ENE
Aureole 1 Rocket 3.6 03:44:01 36° S 03:46:05 65° ESE 03:50:24 10° NNE
Cosmos 2056 Rocket 4.4 03:41:15 10° NNW 03:46:30 51° ENE 03:51:39 10° SE
IRS-1C 4.0 03:44:04 10° NNE 03:49:26 83° WNW 03:51:34 38° SSW
CBERS-1 4.1 03:45:01 10° N 03:50:06 65° WNW 03:51:46 41° SW
Cosmos 1812 Rocket 3.5 03:48:54 10° NNW 03:53:17 70° W 03:54:29 46° SSW
Abrixas 4.3 03:55:11 22° ESE 03:55:11 22° ESE 03:56:38 10° E
Cosmos 1680 Rocket 3.6 03:52:53 35° S 03:55:09 75° ESE 04:00:26 10° NNE
Meteor 1-21 4.4 03:52:35 26° S 03:55:48 69° E 04:01:23 10° NNE
IRS-1D 3.6 03:54:37 10° NNE 03:59:49 78° ESE 04:02:38 28° S
Cosmos 1758 3.9 03:56:17 10° N 04:00:22 57° ENE 04:03:36 15° SSE
NOSS 3-2 (C) 4.0 03:54:02 10° NW 04:01:17 56° WSW 04:09:07 10° SSE
Meteor 1-4 Rocket 2.7 04:01:47 10° NNW 04:05:31 55° W 04:06:03 50° SW
Cosmos 1656 Rocket 3.6 04:01:11 10° NW 04:06:31 60° WSW 04:11:03 14° S
Cosmos 921 Rocket 3.8 04:02:25 10° NNW 04:06:50 55° ENE 04:11:15 10° SE
UNKNOWN OBJECT B 3.8 04:03:18 10° NNE 04:07:07 44° E 04:09:36 20° SSE
GEOS 3 Rocket 3.6 04:02:11 10° NE 04:07:30 85° SE 04:10:09 31° SW
OPS 6432 4.0 04:07:16 69° SSW 04:07:35 87° SE 04:10:37 10° NE
EXPRESS MD2 3.9 04:00:03 10° W 04:07:37 84° N 04:11:13 10° E
Cosmos 1934 Rocket 4.1 04:02:31 10° N 04:08:49 79° E 04:15:10 10° SSE
COSMOS 2455 2.8 04:02:55 10° NW 04:08:52 62° WSW 04:14:47 10° SSE
Cosmos 1943 4.1 04:07:17 24° W 04:09:57 36° NW 04:15:10 10° NNE
Cosmos 1953 Rocket 4.5 04:08:08 16° SSE 04:11:28 47° E 04:15:46 10° NNE
ARIANE 5 R/B 2.5 04:10:17 10° NNE 04:15:34 84° WNW 04:18:39 25° SSW
USA 267 3.8 04:11:56 10° S 04:17:39 32° SW 04:23:23 10° WNW
CENTAUR R/B 3.1 04:12:37 10° NW 04:20:22 87° NE 04:28:47 10° SE
ADEOS II 4.3 04:17:14 10° NE 04:21:22 23° E 04:25:28 10° SE
Cosmos 1371 Rocket 4.0 04:16:41 10° NNW 04:22:02 70° WSW 04:27:22 10° SSE
UNK 4.2 04:21:42 30° SW 04:23:10 39° W 04:27:29 10° NNW
Cosmos 1626 Rocket 4.5 04:24:20 27° WSW 04:25:42 33° WNW 04:29:43 10° N
ADEOS Rocket 3.0 04:20:41 10° NNE 04:26:30 74° WNW 04:31:08 20° SSW
USA 161 1.6 04:25:12 21° SSE 04:27:02 79° ENE 04:29:58 10° N
Cosmos 923 Rocket 4.4 04:24:56 26° SW 04:27:41 50° WNW 04:32:55 10° NNE
NOSS 8 (A) 4.4 04:28:05 35° SSW 04:29:19 71° SE 04:32:53 10° NE
Lacrosse 5 rocket 3.5 04:27:36 12° S 04:30:45 22° SE 04:34:22 10° ENE
NOSS 3-4 (A) 3.5 04:26:51 24° SW 04:30:54 78° NW 04:37:33 10° NE
NOSS 3-4 (C) 3.6 04:26:57 24° SW 04:31:01 79° NW 04:37:40 10° NE
ATLAS 2AS CENTAUR R/B 4.2 04:25:54 10° W 04:33:09 36° NNW 04:40:33 10° NE
Okean O Rocket 3.6 04:31:02 10° NE 04:34:48 26° E 04:38:31 10° SSE
Cosmos 1825 Rocket 3.5 04:32:39 22° SSW 04:35:28 75° W 04:39:55 10° N
CZ-2D R/B 3.5 04:32:06 10° NNE 04:36:16 78° ESE 04:39:21 17° S
Cosmos 44 4.4 04:33:57 10° WNW 04:36:17 20° W 04:36:17 20° W
Genesis I 3.8 04:34:36 10° NW 04:38:11 33° WSW 04:41:45 10° S
SL-27 R/B 2.5 04:38:03 24° SSW 04:40:05 82° ESE 04:43:44 10° NNE
RESURS DK-1 2.3 04:40:27 24° SW 04:42:51 76° WNW 04:47:00 10° NNE
Nadezhda 3 Rocket 4.5 04:39:13 20° SW 04:43:13 44° WNW 04:49:16 10° N
COBE Rocket 4.2 04:40:30 10° N 04:45:31 56° WNW 04:49:07 18° SW
Cosmos 1733 3.2 04:42:30 10° N 04:46:21 85° E 04:50:09 10° S
Cosmos 1805 3.9 04:43:21 10° NNW 04:46:57 35° W 04:48:57 21° SW
NOSS 2-2 (C) 4.5 04:47:22 13° S 04:50:43 43° ESE 04:55:14 10° NE
Cosmos 192 4.5 04:47:35 19° SW 04:51:01 62° WNW 04:55:56 10° NNE
Resurs 1-4 Rocket 2.6 04:46:12 10° N 04:51:09 43° WNW 04:54:47 17° SW
Cosmos 1271 Rocket 3.2 04:48:11 10° NNW 04:51:42 38° W 04:54:09 17° SSW
CZ-2D R/B 2.7 04:48:48 10° N 04:53:48 42° WNW 04:57:32 17° SW
COSMOS 2406 3.3 04:51:32 17° SW 04:56:01 68° WNW 05:01:47 10° NNE
Cosmos 2098 Rocket 2.0 04:52:59 10° NNW 04:56:10 77° W 04:59:04 10° S
Cosmos 1980 Rocket 4.4 04:51:58 10° NNW 04:56:56 29° NE 05:01:52 10° ESE
Cosmos 2082 Rocket 4.2 04:52:37 10° SSE 04:57:07 25° ESE 05:01:40 10° NE
CZ-4B R/B 4.4 04:55:07 10° NNE 05:00:13 40° E 05:05:13 10° SSE
COSMOS 2487 4.4 04:57:53 10° SSE 05:00:58 28° ESE 05:04:04 10° NE
Cosmos 1943 Rocket 4.1 05:01:02 10° W 05:02:06 11° W 05:02:09 11° W
Cosmos 1842 4.4 05:01:20 17° WSW 05:03:21 26° WNW 05:06:41 10° NNW
MOZ.5/SAFIR/RUBIN 5/SL-8 4.4 05:03:21 10° SSW 05:07:36 35° W 05:11:54 10° NNW
Meteor 1-16 Rocket 4.2 05:04:23 10° N 05:09:53 82° ENE 05:15:13 10° SSE
Cosmos 1727 Rocket 4.0 05:04:25 10° S 05:10:37 85° W 05:16:51 10° N
Cosmos 1656 4.1 05:06:29 10° NNW 05:11:56 67° ENE 05:17:19 10° SE
Cosmos 1153 Rocket 4.4 05:08:38 10° NNW 05:14:46 72° W 05:20:51 10° S
Tiangong 1 2.3 05:16:43 15° SW 05:18:13 22° S 05:20:30 10° SE
DNEPR-1 R/B 3.5 05:16:37 10° NW 05:20:48 59° SW 05:25:05 10° SSE
Cosmos 1953 3.7 05:18:47 10° NW 05:21:50 21° W 05:24:52 10° SW
Cosmos 1842 Rocket 3.6 05:17:32 10° N 05:21:57 87° E 05:26:22 10° S
SL-16 R/B 3.9 05:19:15 11° SW 05:22:48 17° W 05:26:45 10° NW
CZ-2C R/B 3.8 05:19:54 10° SSE 05:24:20 79° ENE 05:28:49 10° NNW
USA 215 4.2 05:18:53 10° ENE 05:25:00 44° N 05:31:07 10° WNW
Cosmos 1758 Rocket 4.4 05:24:24 10° SW 05:28:20 32° WNW 05:32:15 10° N
Cosmos 2056 Rocket 4.5 05:23:57 10° NW 05:28:20 26° W 05:32:40 10° SSW
Cosmos 389 Rocket 3.3 05:25:24 10° NNW 05:28:44 34° W 05:32:01 10° SSW
Abrixas 2.2 05:26:17 11° W 05:29:00 81° S 05:31:50 10° E
Cosmos 1802 Rocket 4.3 05:22:47 10° N 05:29:16 79° E 05:35:40 10° SSE
Cosmos 1470 3.7 05:28:40 10° NNW 05:32:03 29° W 05:35:25 10° SSW
Meteor 1-24 Rocket 4.2 05:27:57 10° S 05:33:19 63° E 05:38:56 10° NNE
Cosmos-2242 3.8 05:29:34 10° NNW 05:33:33 34° W 05:37:31 10° SSW
Cosmos 1707 2.9 05:30:34 10° SSW 05:34:22 53° WNW 05:38:11 10° N
PSLV R/B 3.8 05:30:12 10° NNE 05:34:36 78° ESE 05:38:58 10° S
UNKNOWN OBJECT B 4.5 05:38:29 10° NNW 05:41:22 20° WNW 05:44:16 10° WSW
Okean-O 4.4 05:38:00 10° NNE 05:42:07 35° E 05:46:11 10° SSE
MOS 1 Rocket 4.0 05:42:06 10° N 05:45:54 31° WNW 05:49:45 10° SW
Cosmos 1459 Rocket 4.0 05:40:43 10° NNW 05:46:48 70° W 05:52:58 10° S
